www.pogodaiklimat.ru

Погода и климат >> Архив погоды >> Нигер >> Тахва


ПОГОДА в Тахве

  • Прогноз погоды в Тахве
  • Монитор погоды в Тахве

АРХИВ ПОГОДЫ в Тахве

Время (UTC), дата Ветер
(напр.,м/с)
 
Видим.   Явления Облачность Т
(С)
Тd
(С)
f
(%)
Тe
(С)
Тes
(С)
Комфортность P
(гПа)
Po
(гПа)
Тmin
(С)
Tmax
(С)
R
(мм)
R24
(мм)
S
(см)
09 19.04 В 16 6000 м пыльный позёмок 6/0
[Ci sp]
+34.8 -2.8 9 +31 +31 жарко 1009.6 967.1
12 19.04 В 8 6000 м пыль 6/0
[Ci sp]
+40.0 -0.4 8 +36 +40 очень
жарко
1007.7 965.5
15 19.04 СВ 2 8000 м пыль 8/0
[Cs]
+40.2 +4.2 11 +37 +45 очень
жарко
1005.6 963.3
18 19.04 В 8 8000 м пыль 8/0
[Cs]
+38.0 +1.2 10 +34 +34 очень
жарко
1006.5 963.9 +41.5
21 19.04 В 10 10 км 6/0
[Ci sp]
+34.4 +1.7 13 +31 +31 жарко 1007.5 965.2
03 20.04 В 6 10 км 6/0
[Ci sp]
+29.0 +0.6 16 +27 +27 жарко 1006.6 964.3
06 20.04 СВ 4 6000 м пыль 6/0
[Ci sp]
+25.8 -0.1 18 +24 +24 комфорт 1008.0 965.3 +25.6
09 20.04 ЮВ 14 5000 м пыль 8/0
[Cs]
+36.1 +1.9 12 +33 +33 жарко 1009.4 967.1
12 20.04 СВ 10 6000 м пыль 8/0
[Cs]
+40.5 +4.5 11 +37 +38 очень
жарко
1007.7 965.5
15 20.04 С 2 10 км 8/0
[Cs]
+40.8 +2.9 10 +38 +46 очень
жарко
1004.9 962.8
18 20.04 В 8 10 км 8/0
[Ac trans Cs]
+38.2 +4.9 13 +35 +35 очень
жарко
1006.1 963.5 +42.8
21 20.04 В 10 10 км 6/0
[Ci sp]
+34.8 +4.2 15 +32 +32 жарко 1006.7 964.6
03 21.04 СВ 6 10 км 6/0
[Ci sp]
+27.8 +2.5 20 +26 +26 жарко 1005.7 963.4
06 21.04 СВ 4 10 км 6/0
[Ci sp]
+26.7 +0.4 18 +25 +25 комфорт 1006.8 964.2 +26.6
09 21.04 ЮВ 12 10 км 8/0
[Cs]
+37.3 +0.9 10 +34 +34 очень
жарко
1007.7 965.6
12 21.04 Ю 12 8000 м пыль 8/0
[Ac trans Ci sp]
+40.0 +5.5 12 +37 +37 очень
жарко
1006.2 964.0
15 21.04 ЮЗ 6 8000 м пыль 8/0
[Ac trans Ci sp]
+40.8 +6.7 13 +38 +41 очень
жарко
1003.7 961.6
18 21.04 СВ 6 10 км 8/0
[Ac trans Ci sp]
+38.2 +3.4 12 +35 +35 очень
жарко
1004.3 961.9 +42.2
21 21.04 В 6 10 км 6/0
[Ac trans Ci sp]
+34.8 +1.5 12 +31 +31 жарко 1005.2 963.2
06 22.04 штиль 0 6000 м пыль 8/0
[Ac trans Ci sp]
+29.6 +5.6 22 +28 +29 жарко 1005.3 963.0 +29.5
09 22.04 Ю 10 3600 м пыль 9/0
[Ac As Ci sp]
+35.0 +2.0 13 +32 +32 жарко 1007.0 964.8
12 22.04 Ю 14 3600 м пыль 9/0
[Cs]
+40.3 +5.9 12 +37 +37 очень
жарко
1005.6 963.6
15 22.04 Ю 6 6000 м пыль 8/0
[Cs]
+41.2 +5.6 12 +39 +42 очень
жарко
1002.7 960.8
18 22.04 Ю 4 6000 м пыль 8/0
[Cs]
+39.2 +7.8 15 +37 +37 очень
жарко
1002.6 960.5 +42.3
21 22.04 В 4 10 км 6/0
[Ci sp]
+34.1 +9.4 22 +33 +33 жарко 1004.4 962.2
03 23.04 СЗ 6 10 км 9/0
[Ac As Ci sp]
+33.0 +5.8 18 +31 +31 жарко 1002.8 961.0
06 23.04 СВ 12 700 м пыль {туман} 9/0
[Ac As Ci sp]
+31.8 +11.0 28 +32 +32 жарко 1005.3 963.2 +31.5
09 23.04 СВ 16 2000 м пыльный позёмок {туман} 9/0
[Cs]
+34.8 +12.4 26 +35 +35 очень
жарко
1006.9 964.7
12 23.04 С 6 2800 м пыль 9/0
[Cs]
+39.0 +12.0 20 +38 +45 очень
жарко
1005.5 963.5
15 23.04 С 4 3800 м пыль 9/0
[Cs]
+39.8 +13.4 21 +40 +45 очень
душно
1003.6 961.7
18 23.04 СЗ 8 3800 м пыль 9/0
[Cs]
+37.5 +9.5 18 +36 +36 очень
жарко
1004.5 962.3 +41.5
21 23.04 С 10 4000 м пыль 8/0
[Cs]
+33.4 +14.8 33 +35 +35 душно 1007.1 964.8
03 24.04 СВ 6 6000 м пыль 9/0
[Ac trans Ci sp]
+31.0 +14.4 36 +33 +33 душно 1005.9 963.8
06 24.04 СВ 2 6000 м пыль 9/0
[Ac trans Ci sp]
+30.7 +13.3 35 +32 +32 жарко 1008.0 965.6 +30.0
09 24.04 С 10 3800 м пыль 9/0
[Cs]
+34.0 +13.2 28 +34 +35 очень
жарко
1009.3 966.8
12 24.04 СВ 14 5000 м пыльный позёмок 9/0
[Cs]
+39.8 +9.3 16 +38 +38 очень
жарко
1008.4 966.1
15 24.04 СВ 8 5000 м пыль 9/0
[Ac trans Ci sp]
+40.5 +10.1 16 +39 +40 очень
жарко
1006.1 964.0
18 24.04 С 14 2000 м пыль 9/0
[Cs]
+38.0 +7.8 16 +36 +36 очень
жарко
1006.9 964.6 +41.7
21 24.04 СВ 14 4000 м пыль 9/0
[Cs]
+35.2 +6.4 17 +33 +33 жарко 1008.3 965.8
03 25.04 СВ 8 6000 м пыль 6/0
[Ci sp]
+30.2 +6.5 23 +29 +29 жарко 1007.7 965.5
06 25.04 В 10 6000 м пыль 6/0
[Ci sp]
+29.2 +6.2 23 +28 +28 жарко 1009.1 966.6 +29.0
09 25.04 ЮВ 20 2000 м пыльный позёмок 8/0
[Cs]
+38.0 +7.7 16 +36 +36 очень
жарко
1010.3 968.0
12 25.04 ЮВ 12 4000 м пыль 8/0
[Cs]
+40.5 +9.5 16 +39 +39 очень
жарко
1008.6 966.4
15 25.04 СВ 4 7000 м пыль 8/0
[Cs]
+41.2 +11.2 17 +40 +46 очень
жарко
1006.0 963.9
18 25.04 ЮВ 6 6000 м пыль 8/0
[Cs]
+39.6 +10.9 18 +38 +38 очень
жарко
1006.9 964.6 +42.7
21 25.04 В 6 10 км 6/0
[Ci sp]
+35.8 +7.3 17 +34 +34 очень
жарко
1007.6 965.6
03 26.04 В 6 10 км 6/0
[Ci sp]
+31.8 +8.0 23 +31 +31 жарко 1006.2 964.2
06 26.04 СВ 6 10 км 6/0
[Ci sp]
+29.0 +5.5 23 +28 +28 жарко 1008.1 965.8 +28.5

 

Местоположение метеостанции Тахва (Нигер): широта 14.90 долгота 5.25 высота над уровнем моря 391 м.

В архиве по умолчанию представлена погода в Тахве за последнюю неделю. Архивные данные за месяц целиком и за предыдущие месяцы, начиная с января 2011 года, Вы можете получить, выбрав интересующий диапазон дат из раскрывающегося списка и нажав кнопку "Ввод!".


*Определитесь, кто Вы:
робот инопланетянин человек

Внимание! Время в таблицах - всемирное. Для получения местного времени необходимо прибавить поправку, которая равна 1 ч.

Смотрите также архив погоды в соседних городах и на ближайших метеорологических станциях:

Погода в Вирнин-Конни (Нигер) (122 км)
Погода в Маради (Нигер) (253 км)
Погода в Досо (Нигер) (305 км)
Погода в Кацине (Нигерия) (335 км)
Погода в Ниамее (Нигер) (368 км)
Погода в Агадесе (Нигер) (371 км)
Погода в Гае (Нигер) (388 км)
Погода в Тиллабери (Нигер) (416 км)
Погода в Зиндере (Нигер) (421 км)
Погода в Йелве (Нигерия) (450 км)

Пояснения к столбцам:

Ветер - указаны скорость ветра в м/с - средняя за 10 мин, порывы в срок и между сроками (в фигурных скобках) и направление, откуда дует ветер: С - северный, СВ - северо-восточный, В - восточный, ЮВ - юго-восточный, Ю - южный, ЮЗ - юго-западный, З - западный, СЗ - северо-западный.
Видимость - горизонтальная дальность видимости в метрах или километрах. При видимости от 1 до 10 км при отсутствии осадков обычно наблюдается дымка, при ухудшении видимости до 1 км и менее - туман. В сухую погоду видимость может ухудшаться дымом, пылью или мглою.
Явления - указаны атмосферные явления, наблюдавшиеся в срок или в последний час перед сроком; фигурными скобками обозначены явления, наблюдавшиеся между сроками (за 1-3 часа до срока); квадратными скобками обозначены град или гололедные отложения с указанием их диаметра в мм.
Облачность - указаны через наклонную черту общая и нижняя облачность в баллах и высота нижней границы облаков в метрах; квадратными скобками обозначены формы облаков: Ci - перистые, Cs - перисто-слоистые, Cc - перисто-кучевые, Ac - высококучевые, As - высокослоистые, Sc - слоисто-кучевые, Ns - слоисто-дождевые, Cu - кучевые, Cb - кучево-дождевые. Подробнее классификацию облаков см. в Атласе облаков (PDF).
T - Температура воздуха - температура, измеренная на высоте 2 м над землей.
Td - Температура точки росы - температура, при понижении до которой содержащийся в воздухе водяной пар достигнет насыщения.
f - Относительная влажность воздуха - влажноcть воздуха, измеренная на высоте 2 м над землей.
Te - Эффективная температура - температура, которую ощущает одетый по сезону человек в тени. Характеристика душности погоды. При расчете учитывается влияние влажности воздуха и скорости ветра на теплоощущения человека.
Tes - Эффективная температура на солнце - температура, которую ощущает человек, с поправкой на солнечный нагрев. Характеристика знойности погоды. Зависит от высоты солнца над горизонтом, облачности и скорости ветра. Ночью, в пасмурную погоду, а также при ветре 12 м/с и более поправка равна нулю.
P - Атмосферное давление - приведенное к уровню моря атмосферное давление.
Po - Атмосферное давление - измеренное на уровне метеостанции атмосферное давление.
Tmin - Минимальная температура - минимум температуры воздуха на высоте 2 м над землей.
Tmax - Максимальная температура - максимум температуры воздуха на высоте 2 м над землей.
R - Количество осадков - Количество выпавших осадков за период времени, мм. При наведении курсора мыши на число - период времени, за который выпало указанное количество осадков.
R24 - Количество осадков - Количество выпавших осадков за 24 часа, мм.
S - Снежный покров - Высота снежного покрова, см. При наведении курсора мыши на число - состояние снежного покрова и степень покрытия местности в баллах.